Flag for Canada Weather past 2 weeks in Oakville, Ontario, Canada

Now
42 °F

Quite cool.


Feels Like: 39 °F
Forecast: 36 / 52 °F
Wind: 5 mph from North

Location: Burlington Piers

Current Time: Apr 26, 2015 at 1:13:06 AM

Latest Report: Apr 26, 2015 at 12:00 AM


Visibility: N/A

Pressure: 29.82 "Hg

Humidity: 57%

Dew point: 28 °F

Location of OakvilleLocation

Historic Weather in Oakville — Graph

°F

Oakville temperature yesterday

Maximum temperature yesterday: 45 °F (at 10:00 PM)
Minimum temperature yesterday: 33 °F (at 6:00 AM)
Average temperature yesterday: 38 °F

Past Weeks' High & Low Weather Summary

 TemperatureHumidityPressure
High75 °F (Apr 13, 4:00 PM)100% (Apr 20, 4:00 AM)30.41 "Hg (Apr 20, 4:00 AM)
Low31 °F (Apr 23, 9:00 AM)14% (Apr 18, 6:00 PM)29.35 "Hg (Apr 20, 5:00 PM)
Average45 °F61%29.98 "Hg
* Reported Midnight between Apr 10 and Apr 11 — Midnight between Apr 25 and Apr 26, Oakville, Weather by CustomWeather, © 2015

Note: Actual official high and low records may vary slightly from our data, if they occured in-between our weather recording intervals... More about our weather records

Advertising

Oakville weather history for previous 24 hours

 ConditionsComfort  
Time TempWeatherWind HumidityBarometerVisibility
12:00 AM
Sun, Apr 26
42 °FQuite cool.5 mph57%29.82 "HgN/A
11:00 PM
Sat, Apr 25
44 °FQuite cool.10 mph52%29.83 "HgN/A
10:00 PM45 °FCool.8 mph46%29.83 "HgN/A
9:00 PM44 °FQuite cool.5 mph48%29.83 "HgN/A
8:00 PM42 °FQuite cool.5 mph53%29.81 "HgN/A
7:00 PM40 °FQuite cool.2 mph64%29.81 "HgN/A
6:00 PM42 °FQuite cool.5 mph65%29.80 "HgN/A
5:00 PM41 °FQuite cool.12 mph59%29.80 "HgN/A
4:00 PM40 °FChilly.12 mph67%29.83 "HgN/A
3:00 PM40 °FQuite cool.14 mph59%29.86 "HgN/A
2:00 PM40 °FChilly.12 mph59%29.90 "HgN/A
1:00 PM38 °FChilly.8 mph60%29.93 "HgN/A
12:00 PM38 °FChilly.9 mph64%29.97 "HgN/A
11:00 AM37 °FChilly.8 mph57%29.99 "HgN/A
10:00 AM37 °FChilly.3 mph52%29.99 "HgN/A
9:00 AM36 °FChilly.2 mph53%30.00 "HgN/A
8:00 AM34 °FChilly.3 mph63%30.01 "HgN/A
7:00 AM33 °FChilly.3 mph69%30.02 "HgN/A
6:00 AM33 °FChilly.1 mph64%30.01 "HgN/A
5:00 AM33 °FChilly.3 mph64%30.01 "HgN/A
4:00 AM34 °FChilly.5 mph58%30.01 "HgN/A
3:00 AM34 °FChilly.5 mph61%30.02 "HgN/A
2:00 AM35 °FChilly.3 mph59%30.03 "HgN/A
1:00 AM35 °FChilly.5 mph61%30.03 "HgN/A
Weather by CustomWeather, © 2015

See weather overviewHow to use our weather pages